Tracking 19817 objects as of 18-Aug-2019
HD Live streaming from Space Station
objects crossing your sky now

FENGYUN 1C DEB

Track FENGYUN 1C DEB now!
10-day predictions


NORAD ID: 30828
Int'l Code: 1999-025AVN
Perigee: 529.2 km
Apogee: 997.2 km
Inclination: 98.5 °
Period: 99.9 minutes
Semi major axis: 7134 km
RCS: 0.0024 m2 (small)
Launch date: May 10, 1999
Source: People's Republic of China (PRC)
Launch site: Taiyaun Space Center, China (TSC)

Note: This is SATELLITE DEBRIS
aabbcc
Your satellite tracking list
Your tracking list is empty




NASA's NSSDC Master Catalog

Two Line Element Set (TLE):
1 30828U 99025AVN 19229.15758703  .00000165  00000-0  37408-4 0  9993
2 30828  98.5448 295.4077 0328066  37.7356  23.2597 14.40738432652468
Source of the keplerian elements: AFSPC